{"data":{"norad_id":66695,"epoch":"2026-05-25T04:19:42.483648Z","epoch_age_seconds":60224,"freshness":"FRESH","line1":"1 66695U 25276AF  26145.18035282  .00005075  00000+0  23488-3 0  9995","line2":"2 66695  97.4201 219.3509 0002179  78.2177 281.9303 15.20571302 26940","mean_motion":15.20571302,"eccentricity":0.0002179,"inclination_deg":97.4201,"raan_deg":219.3509,"arg_perigee_deg":78.2177,"mean_anomaly_deg":281.9303,"bstar":0.00023488,"rev_number":2694,"period_min":94.701248018161,"perigee_km":502.61658533665,"apogee_km":505.61587129355,"semimajor_km":6882.2532283151,"source":"CELESTRAK","updated_at":"2026-05-25T13:38:06.414638Z"}}